Location: Champs
(48.8539°N, 2.6040°E)
Time: 13:31:25
(UTC+00:00)

COSMOS 2455 - Pass Details

Date: 26 October 2021
Orbit: 898 x 911 km, 67.1° (Epoch: 07 December)

Event Time Altitude Azimuth Distance (km) Brightness Sun altitude
Exits shadow 05:09:29 16° 296° (WNW) 2,203 4.3 -13.3°
Maximum altitude 05:12:21 22° 332° (NNW) 1,902 4.2 -12.9°
Drops below altitude 10° 05:16:54 10° 21° (NNE) 2,606 5.5 -12.1°
Sets 05:20:05 0° 37° (NE) 3,551 6.4 -11.6°
